Home   Weather   Wädenswil   Past weeks

Flag for Switzerland Past Weather in Wädenswil, Zurich, Switzerland — Yesterday and Last 2 Weeks

Now
34 °F

Chilly.


Feels Like: 34 °F
Forecast: 22 / 38 °F
Wind: No wind

Location: Zuerich-Fluntern

Current Time: Dec 3, 2016 at 6:52:13 pm

Latest Report: Dec 3, 2016 at 6:00 pm


Visibility: N/A

Pressure: 30.22 "Hg

Humidity: 82%

Dew Point: 29 °F

Location of WädenswilLocation

Past Weather in Wädenswil — Graph

°F

Wädenswil Temperature Yesterday

Maximum temperature yesterday: 41 °F (at 3:00 pm)
Minimum temperature yesterday: 28 °F (at 7:00 am)
Average temperature yesterday: 34 °F

High & Low Weather Summary for the Past Weeks

 TemperatureHumidityPressure
High63 °F (Nov 22, 12:00 am)100% (Dec 1, 6:00 am)30.65 "Hg (Dec 1, 6:00 am)
Low25 °F (Nov 29, 8:00 am)33% (Nov 21, 11:00 pm)29.58 "Hg (Nov 21, 12:00 pm)
Average40 °F81%30.08 "Hg
* Reported Nov 18 5:00 pm — Dec 3 5:00 pm, Wädenswil, Weather by CustomWeather, © 2016

Note: Actual official high and low records may vary slightly from our data, if they occured in-between our weather recording intervals... More about our weather records

Advertising

Wädenswil Weather History for the Previous 24 Hours

Scroll right to see more
 ConditionsComfort  
Time TempWeatherWind HumidityBarometerVisibility
5:00 pm
Sat, Dec 3
33 °FChilly.1 mph84%30.21 "HgN/A
4:00 pm35 °FChilly.2 mph76%30.18 "HgN/A
3:00 pm36 °FChilly.3 mph76%30.17 "HgN/A
2:00 pm36 °FChilly.5 mph76%30.16 "HgN/A
1:00 pm36 °FChilly.3 mph78%30.16 "HgN/A
12:00 pm36 °FChilly.5 mph81%30.17 "HgN/A
11:00 am36 °FChilly.5 mph81%30.18 "HgN/A
10:00 am36 °FChilly.5 mph84%30.16 "HgN/A
9:00 am36 °FChilly.3 mph85%30.15 "HgN/A
8:00 am36 °FChilly.5 mph87%30.14 "HgN/A
7:00 am36 °FChilly.3 mph89%30.14 "HgN/A
6:00 am36 °FChilly.3 mph89%30.14 "HgN/A
5:00 am36 °FChilly.5 mph89%30.14 "HgN/A
2:00 am36 °FChilly.3 mph88%30.15 "HgN/A
1:00 am35 °FChilly.5 mph87%30.16 "HgN/A
12:00 am32 °FChilly.3 mph91%30.18 "HgN/A
11:00 pm
Fri, Dec 2
34 °FChilly.5 mph87%30.17 "HgN/A
10:00 pm36 °FChilly.3 mph82%30.17 "HgN/A
9:00 pm36 °FChilly.3 mph80%30.18 "HgN/A
8:00 pm36 °FChilly.3 mph79%30.19 "HgN/A
7:00 pm32 °FPassing clouds.2 mph86%30.21 "HgN/A
6:00 pm35 °FChilly.5 mph80%30.20 "HgN/A
Weather by CustomWeather, © 2016

See weather overviewHow to use our weather pages